Greenfield, IN

9:11 AM EST on February 25, 2017 (GMT -0500)
Mount Comfort

Weather History for KMQJ - December, 2013

Change the Weather History Date:

Monday, December 2, 2013

  Actual Average (KEYE) Record (KEYE)
Temperature  
Mean Temperature 40 °F -  
Max Temperature 48 °F 44 °F 62 °F (2012)
Min Temperature 32 °F 30 °F 14 °F (2005)
Degree Days  
Heating Degree Days 25    
Moisture  
Dew Point 37 °F    
Average Humidity 83    
Maximum Humidity 100    
Minimum Humidity 66    
Precipitation  
Precipitation 0.00 in - - ()
Sea Level Pressure  
Sea Level Pressure 29.86 in    
Wind  
Wind Speed 4 mph (ENE)    
Max Wind Speed 9 mph    
Max Gust Speed -    
Visibility 5 miles    
Events      
Averages and records for this station are not official NWS values.
T = Trace of Precipitation, MM = Missing Value Source: NWS Daily Summary

Daily Weather History Graph

Daily Weather History Graph

Search for Another Location

Airport or City:

Trip Planner

Search our weather history database for the weather conditions in past years. The results will help you decide how hot, cold, wet, or windy it might be!

Date:

Astronomy

Dec. 02, 2013 Rise Set
Actual Time 7:47 AM EST 5:19 PM EST
Civil Twilight 7:17 AM EST 5:49 PM EST
Nautical Twilight 6:43 AM EST 6:22 PM EST
Astronomical Twilight 6:10 AM EST 6:55 PM EST
Moon 7:11 AM EST (12/2) 5:21 PM EST (12/2)
Length of Visible Light 10h 32m
Length of Day
9h 32m
Waning Crescent, 0% of the Moon is Illuminated
Dec 2
Waning Crescent
Dec 2
New
Dec 9
First Quarter
Dec 17
Full
Dec 25
Last Quarter

Hourly Weather History & Observations

Time (EST) Temp. Windchill Dew Point Humidity Pressure Visibility Wind Dir Wind Speed Gust Speed Precip Events Conditions
12:14 AM 32.0 °F - 32.0 °F 100% 29.96 in 5.0 mi Calm Calm - N/A   Clear
12:34 AM 33.8 °F 30.8 °F - N/A% 29.96 in 7.0 mi NE 3.5 mph - N/A   Clear
12:55 AM 32.0 °F 28.7 °F 32.0 °F 100% 29.96 in 5.0 mi NNE 3.5 mph - N/A   Clear
1:14 AM 32.0 °F - 32.0 °F 100% 29.94 in 5.0 mi Calm Calm - N/A   Clear
1:34 AM 32.0 °F - - N/A% 29.94 in 4.0 mi Calm Calm - N/A   Clear
1:55 AM 32.0 °F - - N/A% 29.94 in 5.0 mi Calm Calm - N/A   Clear
2:14 AM 32.0 °F 26.4 °F 32.0 °F 100% 29.93 in 4.0 mi NNE 5.8 mph - N/A   Clear
2:34 AM 32.0 °F 27.5 °F - N/A% 29.93 in 4.0 mi NNE 4.6 mph - N/A   Clear
2:54 AM 32.0 °F 27.5 °F - N/A% 29.94 in 4.0 mi North 4.6 mph - N/A   Clear
3:14 AM 32.0 °F 27.5 °F - N/A% 29.93 in 4.0 mi NNE 4.6 mph - N/A   Clear
3:34 AM 32.0 °F 28.7 °F - N/A% 29.93 in 4.0 mi NNE 3.5 mph - N/A   Clear
3:54 AM 32.0 °F 26.4 °F - N/A% 29.92 in 4.0 mi North 5.8 mph - N/A   Clear
4:14 AM 32.0 °F 25.6 °F - N/A% 29.92 in 4.0 mi NE 6.9 mph - N/A   Clear
4:35 AM 32.0 °F 28.7 °F - N/A% 29.91 in 3.0 mi NE 3.5 mph - N/A   Clear
4:54 AM 33.8 °F 29.6 °F - N/A% 29.91 in 4.0 mi NE 4.6 mph - N/A   Clear
5:14 AM 33.8 °F 29.6 °F - N/A% 29.91 in 4.0 mi NE 4.6 mph - N/A   Clear
5:34 AM 33.8 °F 30.8 °F - N/A% 29.91 in 3.0 mi NE 3.5 mph - N/A   Clear
5:54 AM 33.8 °F 29.6 °F - N/A% 29.91 in 3.0 mi NNE 4.6 mph - N/A   Clear
6:14 AM 33.8 °F 29.6 °F - N/A% 29.91 in 4.0 mi NNE 4.6 mph - N/A   Clear
6:34 AM 33.8 °F 29.6 °F - N/A% 29.90 in 3.0 mi NNE 4.6 mph - N/A   Clear
6:54 AM 33.8 °F 28.6 °F - N/A% 29.90 in 3.0 mi NE 5.8 mph - N/A   Clear
7:14 AM 32.0 °F 26.4 °F - N/A% 29.89 in 3.0 mi ENE 5.8 mph - N/A   Clear
7:34 AM 33.8 °F - - N/A% 29.89 in 3.0 mi Calm Calm - N/A   Scattered Clouds
7:54 AM 33.8 °F - - N/A% 29.89 in 4.0 mi Calm Calm - N/A   Clear
8:15 AM 33.8 °F 30.8 °F - N/A% 29.89 in 3.0 mi ENE 3.5 mph - N/A   Clear
8:34 AM 33.8 °F 29.6 °F - N/A% 29.88 in 2.5 mi ENE 4.6 mph - N/A   Clear
8:54 AM 35.6 °F - 35.6 °F 100% 29.89 in 3.0 mi Calm Calm - N/A   Clear
9:14 AM 37.4 °F 32.8 °F 37.4 °F 100% 29.89 in 4.0 mi NE 5.8 mph - N/A   Clear
9:34 AM 37.4 °F 33.8 °F 37.4 °F 100% 29.88 in 4.0 mi NE 4.6 mph - N/A   Clear
9:55 AM 37.4 °F 33.8 °F 37.4 °F 100% 29.88 in 4.0 mi ENE 4.6 mph - N/A   Clear
10:14 AM 39.2 °F 37.0 °F 33.8 °F 81% 29.89 in 5.0 mi ENE 3.5 mph - N/A   Clear
10:34 AM 41.0 °F 39.0 °F 35.6 °F 81% 29.89 in 5.0 mi ESE 3.5 mph - N/A   Clear
10:54 AM 41.0 °F 37.1 °F 35.6 °F 81% 29.89 in 5.0 mi ESE 5.8 mph - N/A   Scattered Clouds
11:14 AM 42.8 °F 37.5 °F 35.6 °F 76% 29.88 in 7.0 mi ESE 9.2 mph - N/A   Scattered Clouds
11:35 AM 42.8 °F 39.3 °F 35.6 °F 76% 29.87 in 5.0 mi ESE 5.8 mph - N/A   Clear
11:54 AM 44.6 °F 39.7 °F 35.6 °F 71% 29.86 in 7.0 mi ESE 9.2 mph - N/A   Clear
12:14 PM 46.4 °F 43.5 °F 35.6 °F 66% 29.85 in 7.0 mi ESE 5.8 mph - N/A   Clear
12:34 PM 46.4 °F 44.3 °F 35.6 °F 66% 29.85 in 7.0 mi ESE 4.6 mph - N/A   Clear
12:54 PM 46.4 °F 44.3 °F 35.6 °F 66% 29.84 in 7.0 mi SE 4.6 mph - N/A   Clear
1:15 PM 46.4 °F 43.5 °F 35.6 °F 66% 29.83 in 7.0 mi East 5.8 mph - N/A   Clear
1:34 PM 46.4 °F 43.5 °F 37.4 °F 71% 29.82 in 7.0 mi East 5.8 mph - N/A   Scattered Clouds
1:54 PM 46.4 °F 44.3 °F 37.4 °F 71% 29.82 in 10.0 mi ESE 4.6 mph - N/A   Mostly Cloudy
2:15 PM 48.2 °F - 37.4 °F 66% 29.81 in 10.0 mi SE 3.5 mph - N/A   Mostly Cloudy
2:34 PM 48.2 °F - 37.4 °F 66% 29.80 in 7.0 mi ESE 4.6 mph - N/A   Mostly Cloudy
2:54 PM 48.2 °F - 37.4 °F 66% 29.79 in 10.0 mi East 5.8 mph - N/A   Scattered Clouds
3:14 PM 48.2 °F - 37.4 °F 66% 29.79 in 7.0 mi East 5.8 mph - N/A   Clear
3:34 PM 46.4 °F 42.4 °F 37.4 °F 71% 29.79 in 7.0 mi East 8.1 mph - N/A   Clear
3:54 PM 46.4 °F 43.5 °F 37.4 °F 71% 29.78 in 7.0 mi East 5.8 mph - N/A   Clear
4:14 PM 46.4 °F 41.9 °F 37.4 °F 71% 29.78 in 7.0 mi East 9.2 mph - N/A   Clear
4:34 PM 46.4 °F 43.5 °F 37.4 °F 71% 29.79 in 7.0 mi East 5.8 mph - N/A   Clear
4:55 PM 44.6 °F 43.1 °F 37.4 °F 76% 29.79 in 7.0 mi ENE 3.5 mph - N/A   Clear
5:14 PM 44.6 °F 43.1 °F 37.4 °F 76% 29.79 in 7.0 mi ENE 3.5 mph - N/A   Scattered Clouds
5:34 PM 42.8 °F 40.1 °F 39.2 °F 87% 29.80 in 7.0 mi ENE 4.6 mph - N/A   Overcast
5:54 PM 42.8 °F 40.1 °F 39.2 °F 87% 29.80 in 7.0 mi ENE 4.6 mph - N/A   Overcast
6:14 PM 42.8 °F 39.3 °F 41.0 °F 93% 29.80 in 7.0 mi ENE 5.8 mph - N/A   Overcast
6:34 PM 42.8 °F 38.6 °F 41.0 °F 93% 29.80 in 7.0 mi East 6.9 mph - N/A   Overcast
6:54 PM 42.8 °F 38.6 °F 41.0 °F 93% 29.80 in 7.0 mi East 6.9 mph - N/A   Overcast
7:14 PM 41.0 °F 36.4 °F 41.0 °F 100% 29.80 in 5.0 mi East 6.9 mph - N/A   Overcast
7:34 PM 41.0 °F 36.4 °F 41.0 °F 100% 29.80 in 5.0 mi East 6.9 mph - N/A   Overcast
7:54 PM 41.0 °F 38.0 °F 41.0 °F 100% 29.80 in 5.0 mi East 4.6 mph - N/A   Overcast
8:14 PM 41.0 °F 37.1 °F 41.0 °F 100% 29.80 in 5.0 mi East 5.8 mph - N/A   Overcast
8:35 PM 41.0 °F 38.0 °F 41.0 °F 100% 29.80 in 5.0 mi ESE 4.6 mph - N/A   Overcast
8:54 PM 41.0 °F 37.1 °F - N/A% 29.80 in 4.0 mi East 5.8 mph - N/A   Overcast
9:14 PM 41.0 °F 36.4 °F - N/A% 29.80 in 4.0 mi East 6.9 mph - N/A   Overcast
9:34 PM 41.0 °F 37.1 °F - N/A% 29.81 in 4.0 mi East 5.8 mph - N/A   Overcast
9:54 PM 41.0 °F 38.0 °F - N/A% 29.80 in 4.0 mi ESE 4.6 mph - N/A   Mostly Cloudy
10:14 PM 41.0 °F 37.1 °F - N/A% 29.80 in 4.0 mi ESE 5.8 mph - N/A   Scattered Clouds
10:34 PM 41.0 °F 38.0 °F - N/A% 29.80 in 4.0 mi ESE 4.6 mph - N/A   Mostly Cloudy
10:54 PM 41.0 °F 38.0 °F - N/A% 29.80 in 4.0 mi ESE 4.6 mph - N/A   Overcast
11:14 PM 41.0 °F 37.1 °F - N/A% 29.80 in 4.0 mi ESE 5.8 mph - N/A   Overcast
11:34 PM 41.0 °F 36.4 °F - N/A% 29.80 in 4.0 mi ESE 6.9 mph - N/A   Overcast
11:55 PM 41.0 °F 38.0 °F - N/A% 29.80 in 4.0 mi SE 4.6 mph - N/A   Mostly Cloudy